TimeCST,TemperatureF,Dew PointF,Humidity,Sea Level PressureIn,VisibilityMPH,Wind Direction,Wind SpeedMPH,Gust SpeedMPH,PrecipitationIn,Events,Conditions,WindDirDegrees,DateUTC
12:15 AM,23.4,20.1,87,30.13,10.0,West,4.6,-,N/A,,Clear,260,2013-11-07 06:15:00
12:35 AM,23.9,20.3,86,30.14,10.0,West,6.9,-,N/A,,Clear,260,2013-11-07 06:35:00
12:55 AM,23.7,20.1,86,30.14,10.0,West,4.6,-,N/A,,Clear,270,2013-11-07 06:55:00
1:15 AM,23.0,19.8,87,30.14,10.0,WSW,5.8,-,N/A,,Clear,250,2013-11-07 07:15:00
1:55 AM,22.6,19.4,87,30.14,10.0,WSW,4.6,-,N/A,,Clear,250,2013-11-07 07:55:00
2:15 AM,22.1,19.0,88,30.14,10.0,WSW,5.8,-,N/A,,Clear,240,2013-11-07 08:15:00
2:35 AM,18.9,16.2,89,30.14,10.0,SW,5.8,-,N/A,,Clear,220,2013-11-07 08:35:00
2:55 AM,20.3,17.6,89,30.14,10.0,SW,5.8,-,N/A,,Clear,220,2013-11-07 08:55:00
3:15 AM,20.5,18.0,90,30.14,10.0,WSW,4.6,-,N/A,,Clear,240,2013-11-07 09:15:00
3:35 AM,20.8,18.1,89,30.14,10.0,WSW,5.8,-,N/A,,Clear,250,2013-11-07 09:35:00
3:55 AM,21.2,18.3,89,30.14,10.0,WSW,3.5,-,N/A,,Clear,240,2013-11-07 09:55:00
4:15 AM,21.2,18.5,89,30.14,10.0,WSW,3.5,-,N/A,,Clear,240,2013-11-07 10:15:00
4:35 AM,21.0,18.5,90,30.14,10.0,WSW,4.6,-,N/A,,Clear,250,2013-11-07 10:35:00
4:55 AM,21.4,18.5,89,30.15,10.0,WSW,4.6,-,N/A,,Clear,250,2013-11-07 10:55:00
5:15 AM,21.6,18.9,89,30.15,10.0,WSW,3.5,-,N/A,,Clear,250,2013-11-07 11:15:00
5:35 AM,21.2,18.5,89,30.15,10.0,WSW,4.6,-,N/A,,Clear,250,2013-11-07 11:35:00
5:55 AM,21.4,18.5,89,30.15,10.0,WSW,4.6,-,N/A,,Clear,250,2013-11-07 11:55:00
6:15 AM,21.0,18.3,89,30.15,10.0,SW,3.5,-,N/A,,Clear,230,2013-11-07 12:15:00
6:35 AM,21.2,18.7,90,30.15,10.0,SW,3.5,-,N/A,,Clear,230,2013-11-07 12:35:00
6:55 AM,19.9,17.6,91,30.15,10.0,WSW,4.6,-,N/A,,Clear,240,2013-11-07 12:55:00
7:15 AM,20.5,18.0,90,30.16,10.0,WSW,6.9,-,N/A,,Clear,240,2013-11-07 13:15:00
7:35 AM,21.9,19.2,89,30.17,10.0,West,5.8,-,N/A,,Clear,260,2013-11-07 13:35:00
7:55 AM,23.7,20.7,88,30.17,10.0,West,4.6,-,N/A,,Clear,260,2013-11-07 13:55:00
8:15 AM,25.5,21.7,86,30.17,10.0,Calm,Calm,-,N/A,,Clear,0,2013-11-07 14:15:00
8:35 AM,27.0,22.8,84,30.17,10.0,Calm,Calm,-,N/A,,Clear,0,2013-11-07 14:35:00
8:55 AM,29.3,23.7,80,30.17,10.0,Calm,Calm,-,N/A,,Clear,0,2013-11-07 14:55:00
9:15 AM,30.2,25.2,82,30.17,10.0,WSW,4.6,-,N/A,,Scattered Clouds,240,2013-11-07 15:15:00
9:35 AM,31.3,25.2,78,30.17,10.0,West,5.8,-,N/A,,Mostly Cloudy,270,2013-11-07 15:35:00
9:55 AM,32.7,25.7,75,30.17,10.0,WSW,8.1,-,N/A,,Scattered Clouds,240,2013-11-07 15:55:00
10:15 AM,34.2,26.1,72,30.17,10.0,WSW,9.2,-,N/A,,Mostly Cloudy,250,2013-11-07 16:15:00
10:35 AM,34.7,25.5,69,30.18,10.0,WNW,11.5,-,N/A,,Scattered Clouds,290,2013-11-07 16:35:00
10:55 AM,36.1,25.0,64,30.18,10.0,WNW,9.2,-,N/A,,Clear,290,2013-11-07 16:55:00
11:15 AM,36.5,23.5,59,30.18,10.0,WNW,12.7,-,N/A,,Clear,290,2013-11-07 17:15:00
11:35 AM,36.9,22.5,56,30.17,10.0,WNW,11.5,18.4,N/A,,Clear,290,2013-11-07 17:35:00
11:55 AM,37.0,22.5,56,30.17,10.0,WNW,10.4,16.1,N/A,,Clear,290,2013-11-07 17:55:00
12:15 PM,36.5,20.8,53,30.16,10.0,West,13.8,-,N/A,,Scattered Clouds,280,2013-11-07 18:15:00
12:35 PM,36.1,19.9,52,30.16,10.0,West,12.7,-,N/A,,Mostly Cloudy,280,2013-11-07 18:35:00
12:55 PM,37.0,19.4,49,30.16,10.0,WNW,12.7,18.4,N/A,,Scattered Clouds,290,2013-11-07 18:55:00
1:15 PM,38.3,18.9,46,30.16,10.0,West,10.4,-,N/A,,Scattered Clouds,280,2013-11-07 19:15:00
1:35 PM,37.8,17.8,44,30.15,10.0,West,12.7,17.3,N/A,,Mostly Cloudy,280,2013-11-07 19:35:00
1:55 PM,37.6,17.4,44,30.15,10.0,WNW,13.8,17.3,N/A,,Scattered Clouds,290,2013-11-07 19:55:00
2:15 PM,37.8,16.0,41,30.14,10.0,West,10.4,-,N/A,,Scattered Clouds,270,2013-11-07 20:15:00
2:35 PM,37.9,16.5,42,30.14,10.0,WNW,12.7,-,N/A,,Mostly Cloudy,290,2013-11-07 20:35:00
2:55 PM,37.8,15.4,40,30.14,10.0,West,10.4,-,N/A,,Scattered Clouds,270,2013-11-07 20:55:00
3:15 PM,37.2,14.4,39,30.14,10.0,WNW,10.4,-,N/A,,Clear,290,2013-11-07 21:15:00
3:35 PM,36.7,15.1,41,30.15,10.0,WNW,11.5,-,N/A,,Clear,300,2013-11-07 21:35:00
3:55 PM,36.0,16.0,44,30.15,10.0,WNW,9.2,-,N/A,,Clear,290,2013-11-07 21:55:00
4:55 PM,32.0,17.2,55,30.15,10.0,WNW,3.5,-,N/A,,Clear,300,2013-11-07 22:55:00
5:15 PM,30.6,17.6,59,30.16,10.0,Calm,Calm,-,N/A,,Clear,0,2013-11-07 23:15:00
5:35 PM,29.8,17.2,59,30.16,10.0,Calm,Calm,-,N/A,,Clear,0,2013-11-07 23:35:00
5:55 PM,28.2,16.9,63,30.16,10.0,Calm,Calm,-,N/A,,Clear,0,2013-11-07 23:55:00
6:15 PM,26.2,20.3,78,30.16,10.0,Calm,Calm,-,N/A,,Clear,0,2013-11-08 00:15:00
6:35 PM,25.7,18.5,74,30.16,10.0,Calm,Calm,-,N/A,,Clear,0,2013-11-08 00:35:00
6:55 PM,24.4,18.3,78,30.17,10.0,Calm,Calm,-,N/A,,Clear,0,2013-11-08 00:55:00
7:15 PM,23.7,18.5,80,30.16,10.0,Calm,Calm,-,N/A,,Mostly Cloudy,0,2013-11-08 01:15:00
7:35 PM,23.5,17.8,79,30.16,10.0,Calm,Calm,-,N/A,,Scattered Clouds,0,2013-11-08 01:35:00
7:55 PM,22.5,17.4,81,30.16,10.0,Calm,Calm,-,N/A,,Clear,0,2013-11-08 01:55:00
8:15 PM,21.6,17.8,85,30.16,10.0,SSW,3.5,-,N/A,,Clear,210,2013-11-08 02:15:00
8:35 PM,22.5,18.1,83,30.16,10.0,Calm,Calm,-,N/A,,Clear,0,2013-11-08 02:35:00
8:55 PM,22.1,16.9,80,30.16,10.0,Calm,Calm,-,N/A,,Clear,0,2013-11-08 02:55:00
9:15 PM,23.4,16.7,76,30.17,10.0,SW,4.6,-,N/A,,Scattered Clouds,230,2013-11-08 03:15:00
9:35 PM,23.2,16.7,76,30.17,10.0,WSW,4.6,-,N/A,,Clear,240,2013-11-08 03:35:00
9:55 PM,21.9,16.2,78,30.17,10.0,WSW,3.5,-,N/A,,Clear,240,2013-11-08 03:55:00
10:15 PM,22.5,16.7,79,30.16,10.0,Calm,Calm,-,N/A,,Scattered Clouds,0,2013-11-08 04:15:00
10:35 PM,20.1,16.5,86,30.16,10.0,Calm,Calm,-,N/A,,Clear,0,2013-11-08 04:35:00
10:55 PM,20.3,16.5,85,30.16,10.0,SW,3.5,-,N/A,,Clear,230,2013-11-08 04:55:00
11:15 PM,21.2,16.3,82,30.16,10.0,SSW,3.5,-,N/A,,Clear,210,2013-11-08 05:15:00
11:35 PM,19.4,15.4,85,30.16,10.0,SSW,3.5,-,N/A,,Clear,210,2013-11-08 05:35:00
11:55 PM,21.4,16.7,82,30.16,10.0,Calm,Calm,-,N/A,,Clear,0,2013-11-08 05:55:00